2020-102C (47298 NORAD) Tracking and Keplerian Element Data

This shows tracking and keplerian element data for the satellite.

Feedback or suggestion? Click here.




ElementValue
Catalog47298
Name2020-102C
Epoch Orbit454
Epoch Day21.07888491
Epoch Year2021
RAAN121.028
Inclination97.3927
Eccentricity0.0002059
Argument of Perigee126.1345
Mean Anonmoly335.648
Mean Motion15.23566822
Decay Rate1.401E-05
L11 47298U 20102C 21021.07888491 .00001401 00000-0 61541-4 0 9993
L22 47298 97.3927 121.0280 0002059 126.1345 335.6480 15.23566822 4543

Live tracking and technical data element details for 2020-102C (NORAD 47298). 2020-102C can be tracked NOW for your location showing map with azimuth and elevation plus other details from your city location.

Track the satellite on the map from your city or location and see movement details for azimuth, elevation, latitude, longitude, range, height, and movement on the map or in text.







IsCatalogInMostPopularTable: catalog: 47298, numindb: 11
Update: records affected: 1



GetName: 47298 2020-102C

Hit Count: updated at: Sat, 23 Jan 2021 17:02:32 GMT